Hot Springs, VA

4:29 PM EST on February 22, 2017 (GMT -0500)
Ingalls

Weather History for KHSP - December, 2013

Change the Weather History Date:

Friday, December 13, 2013

  Actual Average Record
Temperature  
Mean Temperature 22 °F -  
Max Temperature 30 °F 37 °F 59 °F (2015)
Min Temperature 15 °F 24 °F 5 °F (2010)
Degree Days  
Heating Degree Days 42    
Moisture  
Dew Point 9 °F    
Average Humidity 56    
Maximum Humidity 68    
Minimum Humidity 40    
Precipitation  
Precipitation 0.00 in - - ()
Sea Level Pressure  
Sea Level Pressure 30.17 in    
Wind  
Wind Speed 18 mph (West)    
Max Wind Speed 25 mph    
Max Gust Speed 32 mph    
Visibility 10 miles    
Events      
Averages and records for this station are not official NWS values.
T = Trace of Precipitation, MM = Missing Value Source: NWS Daily Summary

Daily Weather History Graph

Daily Weather History Graph

Search for Another Location

Airport or City:

Trip Planner

Search our weather history database for the weather conditions in past years. The results will help you decide how hot, cold, wet, or windy it might be!

Date:

Astronomy

Dec. 13, 2013 Rise Set
Actual Time 7:26 AM EST 5:00 PM EST
Civil Twilight 6:57 AM EST 5:29 PM EST
Nautical Twilight 6:24 AM EST 6:02 PM EST
Astronomical Twilight 5:52 AM EST 6:34 PM EST
Moon 2:40 PM EST (12/13) 3:50 AM EST (12/13)
Length of Visible Light 10h 32m
Length of Day
9h 33m
Waxing Gibbous, 88% of the Moon is Illuminated
Dec 13
Waxing Gibbous
Dec 17
Full
Dec 25
Last Quarter
Jan 1
New
Jan 7
First Quarter

Hourly Weather History & Observations

Time (EST) Temp. Windchill Dew Point Humidity Pressure Visibility Wind Dir Wind Speed Gust Speed Precip Events Conditions
12:15 AM 15.8 °F -2.7 °F 6.8 °F 68% 30.13 in 10.0 mi West 24.2 mph 28.8 mph N/A   Clear
12:35 AM 15.8 °F -3.1 °F 6.8 °F 68% 30.13 in 10.0 mi West 25.3 mph 32.2 mph N/A   Clear
12:55 AM 15.8 °F -2.7 °F 6.8 °F 68% 30.13 in 10.0 mi West 24.2 mph 31.1 mph N/A   Clear
1:15 AM 15.8 °F -2.3 °F 6.8 °F 68% 30.13 in 10.0 mi West 23.0 mph 32.2 mph N/A   Clear
1:35 AM 15.8 °F -1.5 °F 6.8 °F 68% 30.14 in 10.0 mi West 20.7 mph - N/A   Clear
1:55 AM 15.8 °F -1.9 °F 6.8 °F 68% 30.14 in 10.0 mi West 21.9 mph 27.6 mph N/A   Clear
2:15 AM 15.8 °F -2.3 °F 6.8 °F 68% 30.14 in 10.0 mi West 23.0 mph 29.9 mph N/A   Clear
2:35 AM 15.8 °F -1.9 °F 6.8 °F 68% 30.15 in 10.0 mi West 21.9 mph 27.6 mph N/A   Clear
2:55 AM 15.8 °F -1.9 °F 6.8 °F 68% 30.15 in 10.0 mi West 21.9 mph 27.6 mph N/A   Clear
3:15 AM 15.8 °F -1.1 °F 6.8 °F 68% 30.15 in 10.0 mi West 19.6 mph 25.3 mph N/A   Clear
3:35 AM 15.8 °F -1.9 °F 6.8 °F 68% 30.15 in 10.0 mi West 21.9 mph 26.5 mph N/A   Clear
3:55 AM 15.8 °F -0.6 °F 6.8 °F 68% 30.15 in 10.0 mi West 18.4 mph 26.5 mph N/A   Clear
4:15 AM 15.8 °F -1.5 °F 6.8 °F 68% 30.15 in 10.0 mi West 20.7 mph - N/A   Clear
4:35 AM 15.8 °F -0.6 °F 6.8 °F 68% 30.14 in 10.0 mi West 18.4 mph - N/A   Clear
4:55 AM 15.8 °F -1.1 °F 6.8 °F 68% 30.14 in 10.0 mi West 19.6 mph 25.3 mph N/A   Clear
5:15 AM 15.8 °F -1.5 °F 6.8 °F 68% 30.14 in 10.0 mi West 20.7 mph 25.3 mph N/A   Clear
5:35 AM 15.8 °F -1.5 °F 6.8 °F 68% 30.14 in 10.0 mi West 20.7 mph - N/A   Clear
5:55 AM 15.8 °F -0.6 °F 6.8 °F 68% 30.14 in 10.0 mi West 18.4 mph 24.2 mph N/A   Clear
6:15 AM 15.8 °F -0.6 °F 6.8 °F 68% 30.15 in 10.0 mi West 18.4 mph - N/A   Clear
6:35 AM 15.8 °F -0.6 °F 6.8 °F 68% 30.15 in 10.0 mi West 18.4 mph - N/A   Clear
6:55 AM 15.8 °F -0.6 °F 6.8 °F 68% 30.15 in 10.0 mi West 18.4 mph - N/A   Clear
7:15 AM 15.8 °F -1.1 °F 6.8 °F 68% 30.16 in 10.0 mi West 19.6 mph 24.2 mph N/A   Clear
7:35 AM 15.8 °F -0.2 °F 6.8 °F 68% 30.16 in 10.0 mi West 17.3 mph - N/A   Clear
7:55 AM 15.8 °F -0.2 °F 6.8 °F 68% 30.17 in 10.0 mi West 17.3 mph - N/A   Clear
8:15 AM 17.6 °F 3.2 °F 6.8 °F 63% 30.17 in 10.0 mi West 15.0 mph 20.7 mph N/A   Clear
8:35 AM 17.6 °F 3.2 °F 6.8 °F 63% 30.18 in 10.0 mi West 15.0 mph - N/A   Clear
8:55 AM 17.6 °F 3.2 °F 6.8 °F 63% 30.18 in 10.0 mi West 15.0 mph - N/A   Clear
9:15 AM 19.4 °F 6.0 °F 6.8 °F 58% 30.19 in 10.0 mi West 13.8 mph - N/A   Clear
9:35 AM 19.4 °F 6.6 °F 6.8 °F 58% 30.20 in 10.0 mi West 12.7 mph - N/A   Clear
9:55 AM 21.2 °F 8.3 °F 6.8 °F 54% 30.20 in 10.0 mi West 13.8 mph - N/A   Clear
10:15 AM 21.2 °F 8.3 °F 8.6 °F 58% 30.21 in 10.0 mi West 13.8 mph 18.4 mph N/A   Clear
10:35 AM 21.2 °F 8.9 °F 8.6 °F 58% 30.21 in 10.0 mi West 12.7 mph - N/A   Clear
10:55 AM 23.0 °F 10.6 °F 8.6 °F 54% 30.20 in 10.0 mi West 13.8 mph - N/A   Clear
11:15 AM 24.8 °F 12.9 °F 8.6 °F 50% 30.20 in 10.0 mi West 13.8 mph 20.7 mph N/A   Clear
11:35 AM 24.8 °F 12.4 °F 8.6 °F 50% 30.20 in 10.0 mi West 15.0 mph - N/A   Clear
11:55 AM 26.6 °F 16.8 °F 10.4 °F 51% 30.18 in 10.0 mi West 10.4 mph - N/A   Clear
12:15 PM 26.6 °F 16.8 °F 10.4 °F 51% 30.18 in 10.0 mi West 10.4 mph 18.4 mph N/A   Clear
12:35 PM 28.4 °F 18.0 °F 10.4 °F 47% 30.17 in 10.0 mi West 12.7 mph - N/A   Clear
12:55 PM 28.4 °F 18.0 °F 10.4 °F 47% 30.17 in 10.0 mi West 12.7 mph 19.6 mph N/A   Clear
1:15 PM 28.4 °F 17.0 °F 10.4 °F 47% 30.17 in 10.0 mi West 15.0 mph - N/A   Clear
1:35 PM 30.2 °F 18.9 °F 10.4 °F 44% 30.17 in 10.0 mi West 16.1 mph 21.9 mph N/A   Clear
1:55 PM 30.2 °F 19.8 °F 12.2 °F 47% 30.16 in 10.0 mi West 13.8 mph 23.0 mph N/A   Clear
2:15 PM 30.2 °F 19.3 °F 10.4 °F 44% 30.16 in 10.0 mi West 15.0 mph - N/A   Clear
2:35 PM 30.2 °F 19.8 °F 10.4 °F 44% 30.16 in 10.0 mi West 13.8 mph - N/A   Clear
2:55 PM 30.2 °F 19.8 °F 10.4 °F 44% 30.16 in 10.0 mi West 13.8 mph 18.4 mph N/A   Clear
3:15 PM 30.2 °F 20.2 °F 12.2 °F 47% 30.16 in 10.0 mi West 12.7 mph - N/A   Clear
3:35 PM 30.2 °F 20.2 °F 12.2 °F 47% 30.17 in 10.0 mi West 12.7 mph 17.3 mph N/A   Clear
3:55 PM 30.2 °F 18.1 °F 12.2 °F 47% 30.17 in 10.0 mi West 18.4 mph 23.0 mph N/A   Clear
4:15 PM 30.2 °F 20.8 °F 12.2 °F 47% 30.18 in 10.0 mi West 11.5 mph - N/A   Clear
4:55 PM 28.4 °F 18.5 °F 12.2 °F 51% 30.18 in 10.0 mi West 11.5 mph - N/A   Clear
5:15 PM 28.4 °F 19.7 °F 12.2 °F 51% 30.18 in 10.0 mi West 9.2 mph - N/A   Clear
5:35 PM 28.4 °F 19.1 °F 12.2 °F 51% 30.19 in 10.0 mi West 10.4 mph - N/A   Clear
5:55 PM 28.4 °F 19.1 °F 12.2 °F 51% 30.18 in 10.0 mi WSW 10.4 mph - N/A   Clear
6:15 PM 28.4 °F 18.0 °F 12.2 °F 51% 30.19 in 10.0 mi West 12.7 mph - N/A   Clear
6:35 PM 28.4 °F 19.1 °F 12.2 °F 51% 30.19 in 10.0 mi West 10.4 mph - N/A   Clear
6:55 PM 28.4 °F 18.5 °F 12.2 °F 51% 30.19 in 10.0 mi West 11.5 mph - N/A   Clear
7:15 PM 28.4 °F 18.5 °F 12.2 °F 51% 30.19 in 10.0 mi WSW 11.5 mph - N/A   Clear
7:35 PM 28.4 °F 18.5 °F 10.4 °F 47% 30.20 in 10.0 mi West 11.5 mph - N/A   Clear
7:55 PM 28.4 °F 18.5 °F 10.4 °F 47% 30.20 in 10.0 mi West 11.5 mph - N/A   Clear
8:15 PM 28.4 °F 18.0 °F 12.2 °F 51% 30.21 in 10.0 mi West 12.7 mph - N/A   Clear
8:35 PM 30.2 °F 20.2 °F 10.4 °F 44% 30.21 in 10.0 mi West 12.7 mph - N/A   Clear
8:55 PM 30.2 °F 20.2 °F 10.4 °F 44% 30.21 in 10.0 mi West 12.7 mph - N/A   Clear
9:15 PM 30.2 °F 20.8 °F 10.4 °F 44% 30.22 in 10.0 mi West 11.5 mph - N/A   Clear
9:35 PM 30.2 °F 21.3 °F 8.6 °F 40% 30.21 in 10.0 mi West 10.4 mph - N/A   Clear
9:55 PM 30.2 °F 21.3 °F 10.4 °F 44% 30.21 in 10.0 mi West 10.4 mph - N/A   Clear
10:15 PM 30.2 °F 20.8 °F 10.4 °F 44% 30.21 in 10.0 mi West 11.5 mph - N/A   Scattered Clouds
10:35 PM 30.2 °F 21.3 °F 10.4 °F 44% 30.20 in 10.0 mi West 10.4 mph - N/A   Scattered Clouds
10:55 PM 30.2 °F 21.9 °F 10.4 °F 44% 30.21 in 10.0 mi WSW 9.2 mph - N/A   Mostly Cloudy
11:15 PM 30.2 °F 21.3 °F 10.4 °F 44% 30.21 in 10.0 mi West 10.4 mph - N/A   Overcast
11:35 PM 30.2 °F 21.9 °F 10.4 °F 44% 30.21 in 10.0 mi WSW 9.2 mph - N/A   Mostly Cloudy
11:55 PM 30.2 °F 21.3 °F 10.4 °F 44% 30.22 in 10.0 mi West 10.4 mph - N/A   Mostly Cloudy